This is the latest recevied weather packets stored in our database for station/object N6DZK. If no packets are shown the sender has not sent any weather packets the latest 10 day(s).
| Time | Temp. | Humidity | Pressure | Rain* | Wind** | Luminosity | Snow |
|---|---|---|---|---|---|---|---|
| 1777607300 | 16.67° C | 66% | 1013.7 hPa | 0 mm | - | 0 W/m² | - |
| 1777606995 | 16.67° C | 65% | 1013.8 hPa | 0 mm | - | 0 W/m² | - |
| 1777606691 | 16.67° C | 65% | 1013.7 hPa | 0 mm | - | 0 W/m² | - |
| 1777606387 | 17.22° C | 64% | 1013.7 hPa | 0 mm | - | 0 W/m² | - |
| 1777606082 | 17.22° C | 63% | 1013.6 hPa | 0 mm | - | 0 W/m² | - |
| 1777605778 | 17.78° C | 62% | 1013.6 hPa | 0 mm | - | 0 W/m² | - |
| 1777605476 | 17.78° C | 61% | 1013.4 hPa | 0 mm | - | 0 W/m² | - |
| 1777605174 | 17.78° C | 60% | 1013.4 hPa | 0 mm | - | 0 W/m² | - |
| 1777604869 | 18.33° C | 59% | 1013.3 hPa | 0 mm | - | 1 W/m² | - |
| 1777604565 | 18.89° C | 58% | 1013.2 hPa | 0 mm | - | 2 W/m² | - |
| 1777604262 | 18.89° C | 57% | 1013.2 hPa | 0 mm | - | 3 W/m² | - |
| 1777603957 | 18.89° C | 56% | 1013.1 hPa | 0 mm | - | 6 W/m² | - |
| 1777603654 | 19.44° C | 54% | 1013.1 hPa | 0 mm | - | 9 W/m² | - |
| 1777603351 | 19.44° C | 52% | 1013.2 hPa | 0 mm | - | 13 W/m² | - |
| 1777603046 | 20° C | 50% | 1012.9 hPa | 0 mm | - | 17 W/m² | - |
| 1777602741 | 20° C | 49% | 1012.9 hPa | 0 mm | - | 22 W/m² | - |
| 1777602436 | 20.56° C | 48% | 1012.9 hPa | 0 mm | - | 26 W/m² | - |
| 1777602133 | 20.56° C | 47% | 1012.7 hPa | 0 mm | - | 30 W/m² | - |
| 1777601828 | 21.11° C | 45% | 1012.9 hPa | 0 mm | - | 34 W/m² | - |
| 1777601524 | 21.11° C | 43% | 1013 hPa | 0 mm | - | 38 W/m² | - |
| 1777601219 | 21.67° C | 49% | 1012.8 hPa | 0 mm | - | 41 W/m² | - |
| 1777600917 | 21.67° C | 50% | 1012.8 hPa | 0 mm | - | 45 W/m² | - |
| 1777600612 | 21.67° C | 50% | 1012.8 hPa | 0 mm | - | 49 W/m² | - |
| 1777600308 | 22.22° C | 50% | 1012.8 hPa | 0 mm | - | 56 W/m² | - |
| 1777600004 | 22.22° C | 51% | 1012.6 hPa | 0 mm | - | 55 W/m² | - |
* Rain latest hour (hover to see other rain measurements)
** Current wind speed in m/s (hover to see current wind gust speed)